Weather Roundup
Issued by NWS

Home | Current Version | Previous Version | Text Only | Print | Product List | Glossary On
Versions: 1 2 3 4 5 6 7 8 9 10 11 12 13 14 15 16 17 18 19 20 21 22 23 24 25 26 27 28 29 30 31 32 33 34 35 36 37 38 39 40 41 42 43 44 45 46 47 48 49 50
000
NZUS93 KARX 190359
HRRWXR

CURRENT HOURLY OBSERVATIONS ACROSS
MUCH OF THE UPPER MISSISSIPPI VALLEY
NATIONAL WEATHER SERVICE LA CROSSE WI
1000 PM CST THU DEC 18 2014


...SOUTHEAST MINNESOTA...


CITY           SKY/WX    TMP DP  RH WIND       PRES   REMARKS
ROCHESTER      CLOUDY    20  15  81 S3        30.25R
ROCHESTER/MAYO CLOUDY    21  15  76 CALM      30.25S
WINONA         CLOUDY    27  21  80 CALM      30.29S
AUSTIN         CLOUDY    21  18  86 CALM      30.24R
ALBERT LEA     CLOUDY    23  19  86 SE5       30.23S WCI  17
DODGE CENTER   CLOUDY    19  18  93 SE6       30.23S WCI  11
PRESTON        CLOUDY    21  16  81 CALM      30.25S
OWATONNA       CLOUDY    21  16  79 SE6       30.24S WCI  14
FARIBAULT      CLOUDY    21  16  79 SE3       30.25S
$$

...ELSEWHERE IN MINNESOTA...


CITY           SKY/WX    TMP DP  RH WIND       PRES   REMARKS
MINNEAPOLIS    CLOUDY    21  15  78 S6        30.27S WCI  13
INTNL FALLS    CLOUDY    20  17  88 SE5       30.19F WCI  13
DULUTH         CLOUDY    23  18  81 S6        30.21S WCI  16
RED WING       CLOUDY    25  18  74 CALM      30.27S
REDWOOD FALLS  CLOUDY    23  19  85 SE8       30.22F WCI  14
MANKATO        CLOUDY    21  16  79 SE6       30.24S WCI  14
WORTHINGTON    CLOUDY    25  21  86 S8        30.19R WCI  16
FAIRMONT       CLOUDY    25  18  74 SE8       30.22S WCI  16
$$

...SOUTHWEST WISCONSIN...


CITY           SKY/WX    TMP DP  RH WIND       PRES   REMARKS
LA CROSSE      CLOUDY    26  19  74 S5        30.29R WCI  20
PRAIRIE DU CHI CLOUDY    27  17  66 CALM      30.28R
BOSCOBEL       CLOUDY    27  18  69 CALM      30.29R
LONE ROCK      NOT AVBL
PLATTEVILLE    CLOUDY    25  19  79 CALM      30.26S
FORT MC COY    CLOUDY    25  20  80 CALM      30.28S
VIROQUA        CLOUDY    23  20  88 CALM      30.24S
WIS DELLS      NOT AVBL
$$

...ELSEWHERE IN WISCONSIN...


CITY           SKY/WX    TMP DP  RH WIND       PRES   REMARKS
MILWAUKEE      CLOUDY    28  20  71 W6        30.25S WCI  22
MADISON        CLOUDY    27  21  78 N3        30.26R
GREEN BAY      CLEAR     20  17  88 CALM      30.26S
EAU CLAIRE     NOT AVBL
BLACK RVR FLS  CLOUDY    25  20  81 CALM      30.27R
MEDFORD        CLOUDY    19  17  91 CALM      30.22S
WAUSAU         PTCLDY    18  15  88 N3        30.23R
WIS RAPIDS     PTCLDY    19  15  84 CALM      30.27R
MARSHFIELD     CLOUDY    24  20  84 CALM      30.24R
RICE LAKE      CLOUDY    23  20  89 SE6       30.27S WCI  16
$$

...NORTHEAST IOWA...


CITY           SKY/WX    TMP DP  RH WIND       PRES   REMARKS
DECORAH        CLOUDY    23  18  80 CALM      30.25R
MASON CITY     CLOUDY    23  18  81 S7        30.26S WCI  15
CHARLES CITY   CLOUDY    23  19  86 CALM      30.27R
OELWEIN        PTCLDY    18  16  93 NW3       30.27R
$$

...ELSEWHERE IN IOWA...


CITY           SKY/WX    TMP DP  RH WIND       PRES   REMARKS
DES MOINES     CLOUDY    28  22  78 SE6       30.27R WCI  22
IOWA CITY      CLOUDY    26  19  74 CALM      30.31R
FORT DODGE     CLOUDY    27  19  74 SE3       30.25R
$$

...NORTHERN ILLINOIS...


CITY           SKY/WX    TMP DP  RH WIND       PRES   REMARKS
CHICAGO-OHARE  CLOUDY    28  20  71 NW5       30.24F WCI  23
CHICAGO-MIDWAY CLOUDY    30  20  66 NW7       30.25S WCI  23
MOLINE         PTCLDY    22  16  78 CALM      30.29S
ROCKFORD       CLOUDY    27  19  72 W3        30.29R
PEORIA         CLEAR     25  18  74 CALM      30.29R
$$

NOTE: "FAIR" INDICATES FEW OR NO CLOUDS BELOW 12,000 FEET WITH NO
SIGNIFICANT WEATHER AND/OR OBSTRUCTIONS TO VISIBILITY. WIND
SPEEDS ARE IN MILES-PER-HOUR.



USA.gov is the U.S. government's official web portal to all federal, state and local government web resources and services.